Weather History for Poughkeepsie, NY

Change the Weather History Date:

Tuesday, March 11, 2014

  Actual Average Record
Temperature  
Mean Temperature 46 °F 35 °F  
Max Temperature 59 °F 46 °F 74 °F (1977)
Min Temperature 32 °F 24 °F -5 °F (1960)
Degree Days  
Heating Degree Days 19 30  
Month to date heating degree days 417 348  
Since 1 July heating degree days 5120 4919  
Cooling Degree Days 0 0  
Month to date cooling degree days 0 0  
Year to date cooling degree days 0 0  
Moisture  
Dew Point 29 °F    
Average Humidity 55    
Maximum Humidity 82    
Minimum Humidity 30    
Precipitation  
Precipitation 0.00 in 0.11 in 1.16 in (1952)
Month to date precipitation 0.00 1.21  
Year to date precipitation 4.28 6.95  
Sea Level Pressure  
Sea Level Pressure 29.60 in    
Wind  
Wind Speed 5 mph (WSW)    
Max Wind Speed 15 mph    
Max Gust Speed -    
Visibility 9 miles    
Events      
T = Trace of Precipitation, MM = Missing Value Source: NWS Daily Summary

Daily Weather History Graph

Daily Weather History Graph

Search for Another Location

Airport:

Trip Planner

Search our weather history database for the weather conditions in past years. The results will help you decide how hot, cold, wet, or windy it might be!

Date:

Astronomy

Mar. 11, 2014 Rise Set
Actual Time 7:14 AM EDT 6:57 PM EDT
Civil Twilight 6:46 AM EDT 7:25 PM EDT
Nautical Twilight 6:14 AM EDT 7:57 PM EDT
Astronomical Twilight 5:41 AM EDT 8:30 PM EDT
Moon 2:28 PM EDT (3/11) 4:08 AM EDT (3/11)
Length of Visible Light 12h 38m
Length of Day
11h 43m
Waxing Gibbous, 78% of the Moon is Illuminated
Mar 11
Waxing Gibbous
Mar 16
Full
Mar 23
Last Quarter
Mar 30
New
Apr 7
First Quarter

Hourly Weather History & Observations

Time (EDT) Temp. Windchill Dew Point Humidity Pressure Visibility Wind Dir Wind Speed Gust Speed Precip Events Conditions
12:53 AM 41.0 °F 39.0 °F 28.9 °F 62% 29.55 in 10.0 mi WSW 3.5 mph - N/A   Clear
1:53 AM 36.0 °F - 28.9 °F 76% 29.54 in 7.0 mi Calm Calm - N/A   Clear
2:53 AM 34.0 °F - 28.0 °F 79% 29.53 in 7.0 mi Calm Calm - N/A   Clear
3:53 AM 33.1 °F - 28.0 °F 82% 29.52 in 6.0 mi Calm Calm - N/A   Haze
4:53 AM 35.1 °F - 28.0 °F 76% 29.52 in 8.0 mi Calm Calm - N/A   Clear
5:53 AM 36.0 °F 29.6 °F 28.0 °F 73% 29.54 in 9.0 mi WSW 8.1 mph - N/A   Clear
6:53 AM 39.0 °F 34.8 °F 28.9 °F 67% 29.56 in 10.0 mi SW 5.8 mph - N/A   Clear
7:53 AM 39.9 °F 34.5 °F 30.9 °F 70% 29.59 in 9.0 mi WSW 8.1 mph - N/A   Clear
8:53 AM 46.0 °F 41.9 °F 33.1 °F 61% 29.60 in 10.0 mi SW 8.1 mph - N/A   Clear
9:53 AM 50.0 °F - 34.0 °F 54% 29.61 in 10.0 mi SW 11.5 mph - N/A   Clear
10:53 AM 51.1 °F - 33.1 °F 50% 29.60 in 10.0 mi WSW 12.7 mph - N/A   Partly Cloudy
11:53 AM 53.1 °F - 32.0 °F 45% 29.61 in 10.0 mi WSW 13.8 mph - N/A   Clear
12:53 PM 54.0 °F - 28.9 °F 38% 29.60 in 10.0 mi West 15.0 mph - N/A   Clear
1:53 PM 55.9 °F - 28.0 °F 34% 29.59 in 10.0 mi West 11.5 mph - N/A   Clear
2:53 PM 57.0 °F - 27.0 °F 32% 29.58 in 10.0 mi West 11.5 mph - N/A   Clear
3:53 PM 57.9 °F - 26.1 °F 30% 29.59 in 10.0 mi West 6.9 mph - N/A   Clear
4:53 PM 57.0 °F - 26.1 °F 30% 29.59 in 10.0 mi WSW 8.1 mph - N/A   Clear
5:53 PM 55.9 °F - 26.1 °F 32% 29.61 in 10.0 mi West 6.9 mph - N/A   Clear
6:53 PM 53.1 °F - 26.1 °F 35% 29.64 in 10.0 mi West 5.8 mph - N/A   Clear
7:53 PM 45.0 °F 43.5 °F 28.9 °F 53% 29.66 in 10.0 mi ENE 3.5 mph - N/A   Clear
8:53 PM 46.0 °F - 28.0 °F 50% 29.67 in 10.0 mi Calm Calm - N/A   Overcast
9:53 PM 41.0 °F - 30.0 °F 65% 29.69 in 10.0 mi Calm Calm - N/A   Partly Cloudy
10:53 PM 39.9 °F - 30.0 °F 68% 29.70 in 10.0 mi Calm Calm - N/A   Partly Cloudy
11:53 PM 39.0 °F - 30.0 °F 70% 29.69 in 10.0 mi Calm Calm - N/A   Overcast